Location: ASU Dark Sky Observatory
(36.2504°N, 81.4125°W)
Time: 15:34:42
(UTC-04:00)

Amateur Radio Satellites - All Passes

Search period start: 22 July 2014 15:04
Search period end: 23 July 2014 15:04
Location: ASU Dark Sky Observatory, 36.2504°N, 81.4125°W

Satellite Date Start Highest point End Downlink Frequencies (MHz)
Time Altitude Azimuth
AO-7 22 Jul 15:13:23 15:18:55 20° 55° (NE) 15:24:27 29.400 - 29.500 MHz
AO-27 22 Jul 15:18:03 15:23:07 50° 260° (W) 15:28:12 436.795 MHz FM
KITSAT 1 22 Jul 15:20:00 15:23:52 14° 34° (NE) 15:27:43 435.175 FM
Uribyol 2 22 Jul 15:22:19 15:27:15 43° 261° (W) 15:32:13 436.500 FM
JAS-1B 22 Jul 15:34:24 15:42:35 85° 256° (WSW) 15:52:11 435.800 - 435.900 CW/SSB
AO-Echo 22 Jul 15:42:10 15:46:42 30° 264° (W) 15:51:19 ?
UOSAT-12 22 Jul 15:47:02 15:50:17 20° 110° (ESE) 15:53:36 437.025 FM, 437.400 FM
Uosat F 22 Jul 15:55:00 15:58:50 22° 67° (ENE) 16:02:41 435.120 FM
TMSAT-1 22 Jul 16:19:35 16:24:40 47° 261° (W) 16:29:47 436.925 FM
OPAL 22 Jul 16:23:42 16:26:54 17° 96° (E) 16:30:07 ?
SO-50 22 Jul 16:27:44 16:30:02 14° 315° (NW) 16:32:22 436.795 FM
Gurwin Techsat 1B 22 Jul 16:40:34 16:44:35 22° 266° (W) 16:48:38 435.225 FM
AO-7 22 Jul 17:02:16 17:10:38 87° 253° (WSW) 17:19:04 29.400 - 29.500 MHz
RS-15 22 Jul 17:10:43 17:20:35 36° 316° (NW) 17:30:24 29.354 - 29.394 USB, Beacon 29.352 USB
KITSAT 1 22 Jul 17:13:17 17:21:13 57° 57° (ENE) 17:29:06 435.175 FM
UOSAT-12 22 Jul 17:25:48 17:30:07 40° 305° (NW) 17:34:32 437.025 FM, 437.400 FM
JAS-1B 22 Jul 17:29:50 17:34:30 16° 276° (W) 17:39:33 435.800 - 435.900 CW/SSB
Uosat F 22 Jul 17:32:41 17:37:21 38° 261° (W) 17:42:03 435.120 FM
OPAL 22 Jul 18:01:09 18:06:00 49° 290° (WNW) 18:10:53 ?
Hamsat 22 Jul 18:11:35 18:15:21 34° 72° (ENE) 18:19:08 145.90 MHz
JAS-2 22 Jul 18:19:04 18:26:28 47° 70° (ENE) 18:33:41 435.800 - 435.900 CW/SSB, 435.910 FM
Saudisat 1A 22 Jul 18:26:13 18:30:02 28° 52° (NE) 18:33:50 436.775 MHz
AO-7 22 Jul 19:00:07 19:04:21 15° 269° (W) 19:08:37 29.400 - 29.500 MHz
KITSAT 1 22 Jul 19:09:29 19:16:06 29° 255° (WSW) 19:22:42 435.175 FM
RS-15 22 Jul 19:32:43 19:37:43 14° 349° (N) 19:42:44 29.354 - 29.394 USB, Beacon 29.352 USB
Oscar 10/S400 22 Jul 19:34:43 19:51:03 29° 144° (SE) 20:11:36 145.825 - 145.975 CW/USB, Beacon 145.810 USB
Hamsat 22 Jul 19:48:48 19:51:25 16° 267° (W) 19:54:02 145.90 MHz
HO-68 22 Jul 19:50:04 19:52:54 13° 54° (NE) 19:55:43 435.675 MHz FM
JAS-2 22 Jul 20:04:31 20:11:28 35° 264° (W) 20:18:21 435.800 - 435.900 CW/SSB, 435.910 FM
Saudisat 1A 22 Jul 20:05:51 20:09:31 26° 248° (WSW) 20:13:09 436.775 MHz
STRAND 1 22 Jul 20:12:32 20:17:40 80° 103° (ESE) 20:22:45 ?
SO-67 22 Jul 20:18:50 20:22:05 38° 262° (W) 20:25:21 435.3500 MHz FM
HO-68 22 Jul 21:32:14 21:39:23 75° 72° (ENE) 21:46:33 435.675 MHz FM
AO-40 22 Jul 21:41:24 04:32:18 42° 183° (S) 10:11:22 Beacon 2401.320
RS-15 22 Jul 21:49:22 21:56:40 19° 27° (NNE) 22:04:02 29.354 - 29.394 USB, Beacon 29.352 USB
STRAND 1 22 Jul 21:54:38 21:56:07 11° 299° (WNW) 21:57:37 ?
Oscar 11 22 Jul 22:22:49 22:27:07 76° 76° (ENE) 22:31:25 145.825 FM, Beacon 2401.500 USB
MaSat-1 22 Jul 22:25:23 22:27:39 16° 100° (E) 22:30:08 437.345 MHz
FUNcube-1 22 Jul 22:25:30 22:29:14 27° 71° (ENE) 22:32:54 145.950 - 145.970 MHz USB
SO-50 22 Jul 23:18:48 23:23:03 32° 53° (NE) 23:27:21 436.795 FM
HO-68 22 Jul 23:23:12 23:27:39 17° 268° (W) 23:32:08 435.675 MHz FM
Lituanica SAT-1 22 Jul 23:58:03 23:58:37 11° 130° (SE) 23:59:10 437.275 MHz beacon
RS-15 23 Jul 00:01:01 00:11:56 61° 55° (NE) 00:23:14 29.354 - 29.394 USB, Beacon 29.352 USB
MaSat-1 23 Jul 00:01:02 00:04:31 34° 301° (WNW) 00:08:35 437.345 MHz
FUNcube-1 23 Jul 00:02:06 00:05:34 23° 264° (W) 00:09:00 145.950 - 145.970 MHz USB
UOSAT-12 23 Jul 00:19:55 00:21:24 11° 42° (NE) 00:22:52 437.025 FM, 437.400 FM
SO-50 23 Jul 00:59:29 01:03:30 27° 248° (WSW) 01:07:33 436.795 FM
Lituanica SAT-1 23 Jul 01:29:30 01:31:21 23° 324° (NW) 01:33:12 437.275 MHz beacon
UOSAT-12 23 Jul 01:57:32 02:02:17 84° 60° (ENE) 02:06:56 437.025 FM, 437.400 FM
Sapphire 23 Jul 02:02:41 02:07:20 30° 108° (ESE) 02:12:00 437.095 MHz 1200 baud AX-25 AFSK
ISS 23 Jul 02:08:05 02:11:22 61° 136° (SE) 02:14:41 145.800 FM
RS-15 23 Jul 02:14:06 02:23:41 36° 254° (WSW) 02:33:39 29.354 - 29.394 USB, Beacon 29.352 USB
AO-Echo 23 Jul 02:16:09 02:17:28 11° 90° (E) 02:18:47 ?
PCSat 23 Jul 02:35:58 02:41:18 68° 114° (ESE) 02:46:42 145.825 MHz
Oscar 19 23 Jul 02:42:19 02:47:20 50° 100° (E) 02:52:20 437.125 CW, 437.150 USB
Oscar 16 23 Jul 03:09:24 03:14:34 83° 284° (WNW) 03:19:44 437.025 USB, Beacon 2401.1428
ITAMSAT 1 23 Jul 03:16:21 03:21:22 48° 100° (E) 03:26:19 435.822 SSB
Gurwin Techsat 1B 23 Jul 03:19:13 03:23:03 20° 94° (E) 03:26:53 435.225 FM
JAS-1B 23 Jul 03:24:22 03:33:13 41° 95° (E) 03:40:56 435.800 - 435.900 CW/SSB
AO-27 23 Jul 03:33:38 03:38:50 74° 103° (ESE) 03:43:59 436.795 MHz FM
OPAL 23 Jul 03:36:08 03:39:59 23° 65° (ENE) 03:43:49 ?
Uribyol 2 23 Jul 03:37:26 03:42:37 84° 103° (ESE) 03:47:46 436.500 FM
Sapphire 23 Jul 03:45:48 03:50:38 33° 304° (NW) 03:55:31 437.095 MHz 1200 baud AX-25 AFSK
ISS 23 Jul 03:46:05 03:48:22 17° 332° (NNW) 03:50:40 145.800 FM
AO-Echo 23 Jul 03:51:37 03:56:45 71° 285° (WNW) 04:01:42 ?
PCSat 23 Jul 04:21:45 04:25:14 17° 311° (NW) 04:28:43 145.825 MHz
Oscar 19 23 Jul 04:22:52 04:26:14 18° 295° (WNW) 04:29:37 437.125 CW, 437.150 USB
TMSAT-1 23 Jul 04:37:52 04:43:12 86° 104° (ESE) 04:48:29 436.925 FM
ITAMSAT 1 23 Jul 04:56:56 05:00:27 19° 295° (WNW) 05:03:57 435.822 SSB
Gurwin Techsat 1B 23 Jul 04:58:10 05:03:11 44° 289° (WNW) 05:08:10 435.225 FM
AO-7 23 Jul 05:07:22 05:14:58 38° 99° (E) 05:22:29 29.400 - 29.500 MHz
OPAL 23 Jul 05:14:07 05:18:38 35° 260° (W) 05:23:10 ?
JAS-1B 23 Jul 05:14:39 05:23:38 46° 295° (WNW) 05:31:35 435.800 - 435.900 CW/SSB
AO-27 23 Jul 05:15:33 05:17:40 13° 298° (WNW) 05:19:48 436.795 MHz FM
Uribyol 2 23 Jul 05:20:07 05:21:20 11° 299° (WNW) 05:22:34 436.500 FM
Uosat F 23 Jul 05:42:38 05:47:41 82° 103° (ESE) 05:52:41 435.120 FM
TMSAT-1 23 Jul 06:21:02 06:22:19 11° 299° (WNW) 06:23:37 436.925 FM
AO-7 23 Jul 07:00:00 07:07:44 45° 296° (WNW) 07:15:26 29.400 - 29.500 MHz
JAS-2 23 Jul 07:17:53 07:23:44 44° 97° (E) 07:28:57 435.800 - 435.900 CW/SSB, 435.910 FM
Uosat F 23 Jul 07:24:41 07:25:43 11° 299° (WNW) 07:26:45 435.120 FM
STRAND 1 23 Jul 07:25:44 07:30:53 87° 76° (ENE) 07:36:04 ?
Hamsat 23 Jul 07:35:10 07:39:27 78° 283° (WNW) 07:43:45 145.90 MHz
KITSAT 1 23 Jul 07:38:11 07:46:01 56° 112° (ESE) 07:53:52 435.175 FM
Lituanica SAT-1 23 Jul 07:44:40 07:46:47 41° 39° (NE) 07:48:54 437.275 MHz beacon
SO-67 23 Jul 07:46:09 07:48:21 16° 94° (E) 07:50:33 435.3500 MHz FM
PANSAT 23 Jul 08:19:36 08:22:10 17° 166° (SSE) 08:24:44 not established
MaSat-1 23 Jul 08:21:28 08:26:14 32° 59° (ENE) 08:30:49 437.345 MHz
Saudisat 1A 23 Jul 08:32:22 08:34:21 13° 108° (ESE) 08:36:20 436.775 MHz
ISS 23 Jul 08:39:20 08:42:15 26° 33° (NNE) 08:45:08 145.800 FM
Oscar 10/S400 23 Jul 08:44:19 09:46:40 18° 262° (W) 11:38:56 145.825 - 145.975 CW/USB, Beacon 145.810 USB
JAS-2 23 Jul 09:03:38 09:08:24 24° 297° (WNW) 09:12:48 435.800 - 435.900 CW/SSB, 435.910 FM
HO-68 23 Jul 09:05:23 09:09:07 15° 91° (E) 09:12:49 435.675 MHz FM
SO-67 23 Jul 09:18:36 09:21:23 23° 288° (WNW) 09:24:09 435.3500 MHz FM
KITSAT 1 23 Jul 09:34:39 09:41:44 33° 311° (NW) 09:48:52 435.175 FM
PANSAT 23 Jul 09:58:38 10:01:50 25° 178° (S) 10:05:03 not established
MaSat-1 23 Jul 09:58:55 10:03:32 31° 255° (WSW) 10:07:55 437.345 MHz
Saudisat 1A 23 Jul 10:09:07 10:13:26 54° 303° (WNW) 10:17:48 436.775 MHz
Oscar 11 23 Jul 10:14:17 10:17:05 17° 94° (E) 10:19:51 145.825 FM, Beacon 2401.500 USB
ISS 23 Jul 10:16:00 10:18:58 29° 228° (SW) 10:21:55 145.800 FM
HO-68 23 Jul 10:50:20 10:57:31 84° 287° (WNW) 11:04:38 435.675 MHz FM
Sapphire 23 Jul 10:53:46 10:57:07 16° 48° (NE) 11:00:27 437.095 MHz 1200 baud AX-25 AFSK
PCSat 23 Jul 11:26:52 11:31:41 32° 55° (NE) 11:36:29 145.825 MHz
PANSAT 23 Jul 11:38:41 11:41:32 20° 191° (SSW) 11:44:23 not established
Oscar 11 23 Jul 11:49:24 11:53:21 36° 288° (WNW) 11:57:18 145.825 FM, Beacon 2401.500 USB
FUNcube-1 23 Jul 11:52:48 11:56:58 84° 102° (ESE) 12:01:09 145.950 - 145.970 MHz USB
Sapphire 23 Jul 12:35:40 12:41:05 72° 246° (WSW) 12:46:27 437.095 MHz 1200 baud AX-25 AFSK
HO-68 23 Jul 12:40:36 12:44:08 15° 304° (NW) 12:47:39 435.675 MHz FM
Oscar 16 23 Jul 12:48:20 12:50:12 12° 62° (ENE) 12:52:05 437.025 USB, Beacon 2401.1428
PCSat 23 Jul 13:10:16 13:15:02 32° 251° (WSW) 13:19:46 145.825 MHz
Uribyol 2 23 Jul 13:17:56 13:19:09 11° 61° (ENE) 13:20:22 436.500 FM
AO-Echo 23 Jul 13:26:06 13:28:27 13° 62° (ENE) 13:30:49 ?
SO-50 23 Jul 13:32:51 13:35:41 17° 109° (ESE) 13:38:33 436.795 FM
Oscar 19 23 Jul 13:56:39 14:01:37 55° 73° (ENE) 14:06:37 437.125 CW, 437.150 USB
JAS-1B 23 Jul 14:05:04 14:12:07 29° 59° (ENE) 14:19:52 435.800 - 435.900 CW/SSB
TMSAT-1 23 Jul 14:20:14 14:22:06 12° 62° (ENE) 14:23:58 436.925 FM
RS-15 23 Jul 14:21:12 14:31:47 50° 110° (ESE) 14:42:05 29.354 - 29.394 USB, Beacon 29.352 USB
Oscar 16 23 Jul 14:23:46 14:28:53 75° 258° (WSW) 14:34:01 437.025 USB, Beacon 2401.1428
ITAMSAT 1 23 Jul 14:31:42 14:36:47 56° 73° (ENE) 14:41:54 435.822 SSB
Gurwin Techsat 1B 23 Jul 14:37:47 14:42:03 25° 67° (ENE) 14:46:20 435.225 FM
AO-27 23 Jul 14:49:05 14:54:19 85° 76° (ENE) 14:59:34 436.795 MHz FM
Uribyol 2 23 Jul 14:52:38 14:57:51 85° 256° (WSW) 15:03:05 436.500 FM
